Regional Weather Roundup
Issued by NWS

Home | Current Version | Previous Version | Graphics & Text | Print | Product List | Glossary On
Versions: 1 2 3 4 5 6 7 8 9 10 11 12 13 14 15 16 17 18 19 20 21 22 23 24 25 26 27 28 29 30 31 32 33 34 35 36 37 38 39 40 41 42 43 44 45 46 47 48 49 50
667
ASUS43 KFSD 072310
RWRSD

WEATHER ROUNDUP FOR SOUTH DAKOTA
NATIONAL WEATHER SERVICE SIOUX FALLS SD
500 PM CST WED DEC 07 2016

NOTE: "FAIR" INDICATES FEW OR NO CLOUDS BELOW 12,000 FEET WITH NO
SIGNIFICANT WEATHER AND/OR OBSTRUCTIONS TO VISIBILITY.


SDZ001>005-009-010-012>017-080000-
NORTHWEST AND NORTH CENTRAL SOUTH DAKOTA

CITY           SKY/WX    TMP DP  RH WIND       PRES   REMARKS
BUFFALO          N/A      4  -5  66 NW25G36   30.32R WCI -19
FAITH            N/A      5  -1  76 NW22      30.37R WCI -16
MOBRIDGE       CLOUDY     8  -2  63 NW28G36   30.33R WCI -14
$$

SDZ012>016-024>037-041>051-057-063-072>074-080000-
SOUTHWEST AND SOUTH CENTRAL SOUTH DAKOTA

CITY           SKY/WX    TMP DP  RH WIND       PRES   REMARKS
RAPID CTY ARPT MOCLDY     9  -4  55 N23G30    30.36R WCI -11
PIERRE         MOCLDY    12   2  64 NW28G41   30.38R WCI  -9
CUSTER         CLEAR      8  -9  45 NW3       30.16R
ELLSWORTH AFB  CLOUDY    10  -4  53 N20       30.35R WCI  -9
PHILIP         CLEAR     10   0  63 NW20G28   30.42R WCI  -9
PINE RIDGE     CLEAR      8   0  69 W6        30.37R WCI  -2
SPEARFISH      FAIR       5  -6  61 W18G25    30.35R WCI -15
WINNER         FAIR      13   1  59 NW24G32   30.39R WCI  -7
$$

SDZ004>011-016>023-039-040-080000-
NORTHEAST SOUTH DAKOTA

CITY           SKY/WX    TMP DP  RH WIND       PRES   REMARKS
ABERDEEN       CLOUDY    10   0  63 NW25G36   30.30R WCI -11
WATERTOWN      CLOUDY     7   2  80 W23G32    30.20R WCI -14
BROOKINGS      LGT SNOW  10   7  85 NW18G25   30.22R FOG     WCI  -8
SISSETON         N/A     12   5  73 NW28G36   30.17R WCI  -9
$$

SDZ017-020-022-023-036>040-048>070-080000-
SOUTHEAST SOUTH DAKOTA

CITY           SKY/WX    TMP DP  RH WIND       PRES   REMARKS
SIOUX FALLS    PTCLDY    15   5  64 NW26G35   30.26R WCI  -4
HURON          CLOUDY    13   4  67 NW22G32   30.34R WCI  -6
CHAMBERLAIN    CLEAR     14   4  64 NW26      30.38R WCI  -5
MITCHELL       MOCLDY    16   5  62 NW28G37   30.36R WCI  -4
YANKTON        CLEAR    N/A N/A N/A W25G31    30.33R
$$

ABBREVIATIONS USED IN REMARKS
   TC - TEMPERATURE IN CELSIUS
  WCI - WIND CHILL INDEX
   HX - HEAT INDEX
  VSB - VISIBILITY





USA.gov is the U.S. government's official web portal to all federal, state and local government web resources and services.